Weather History for Alexandria, Egypt

Change the Weather History Date:

Thursday, January 31, 2013

  Actual Average Record
Temperature  
Mean Temperature 56 °F -  
Max Temperature 62 °F 63 °F 84 °F (2001)
Min Temperature 50 °F 48 °F 35 °F (2001)
Degree Days  
Heating Degree Days 9    
Growing Degree Days 6 (Base 50)    
Moisture  
Dew Point 46 °F    
Average Humidity 66    
Maximum Humidity 94    
Minimum Humidity 42    
Precipitation  
Precipitation 0.28 in 0.03 in - ()
Sea Level Pressure  
Sea Level Pressure 29.87 in    
Wind  
Wind Speed 14 mph ()    
Max Wind Speed 22 mph    
Max Gust Speed -    
Visibility 6.1 miles    
Events Rain    
Averages and records for this station are not official NWS values.
T = Trace of Precipitation, MM = Missing Value Source: Averaged Metar Reports

Daily Weather History Graph

Daily Weather History Graph

Search for Another Location

Airport:

Trip Planner

Search our weather history database for the weather conditions in past years. The results will help you decide how hot, cold, wet, or windy it might be!

Date:

Astronomy

Jan. 31, 2013 Rise Set
Actual Time 6:53 AM EET 5:34 PM EET
Civil Twilight 6:27 AM EET 6:00 PM EET
Nautical Twilight 5:58 AM EET 6:29 PM EET
Astronomical Twilight 5:29 AM EET 6:57 PM EET
Moon 9:52 PM EET (1/31) 9:02 AM EET (1/31)
Length of Visible Light 11h 32m
Length of Day
10h 41m
Waning Gibbous, 82% of the Moon is Illuminated
Jan 31
Waning Gibbous
Feb 3
Last Quarter
Feb 10
New
Feb 17
First Quarter
Feb 25
Full

Hourly Weather History & Observations

Time (EET) Temp. Dew Point Humidity Pressure Visibility Wind Dir Wind Speed Gust Speed Precip Events Conditions
12:00 AM 55.4 °F 48.2 °F 77% 29.86 in 6.2 mi WNW 17.3 mph - N/A   Scattered Clouds
1:00 AM 55.4 °F 48.2 °F 77% 29.86 in 6.2 mi WNW 11.5 mph - N/A   Scattered Clouds
2:00 AM 57 °F 48 °F 64% 29.85 in 6 mi NNW 11.5 mph - -   Partly Cloudy
2:00 AM 57.2 °F 48.2 °F 72% 29.86 in 6.2 mi NNW 11.5 mph - N/A   Scattered Clouds
3:00 AM 55.4 °F 48.2 °F 77% 29.80 in 3.7 mi NW 20.7 mph - N/A   Mostly Cloudy
4:00 AM 53.6 °F 50.0 °F 88% 29.80 in 6.2 mi NW 13.8 mph - N/A   Mostly Cloudy
5:00 AM 51.8 °F 50.0 °F 94% 29.80 in 6.2 mi WNW 19.6 mph - N/A   Mostly Cloudy
6:00 AM 55.4 °F 46.4 °F 72% 29.80 in 6.2 mi WNW 17.3 mph - N/A   Mostly Cloudy
7:00 AM 53.6 °F 48.2 °F 82% 29.80 in 6.2 mi WNW 19.6 mph - N/A   Scattered Clouds
8:00 AM 55 °F 48 °F 70% 29.83 in 6 mi WNW 21.9 mph - - Rain Light Rain Showers
8:00 AM 55.4 °F 48.2 °F 77% 29.83 in 6.2 mi WNW 21.9 mph - N/A   Scattered Clouds
9:00 AM 57.2 °F 48.2 °F 72% 29.83 in 6.2 mi NW 19.6 mph - N/A   Scattered Clouds
10:00 AM 53.6 °F 48.2 °F 82% 29.86 in 6.2 mi NW 17.3 mph - N/A   Scattered Clouds
11:00 AM 59.0 °F 46.4 °F 63% 29.86 in 6.2 mi WNW 17.3 mph - N/A   Scattered Clouds
12:00 PM 60.8 °F 44.6 °F 55% 29.86 in 6.2 mi NW 20.7 mph - N/A   Scattered Clouds
1:00 PM 62.6 °F 46.4 °F 55% 29.86 in 6.2 mi NW 19.6 mph - N/A   Scattered Clouds
2:00 PM 62 °F 45 °F 42% 29.88 in 6 mi NW 19.6 mph - -   Partly Cloudy
3:00 PM 60.8 °F 44.6 °F 55% 29.89 in 6.2 mi NW 18.4 mph - N/A   Scattered Clouds
4:00 PM 60.8 °F 44.6 °F 55% 29.89 in 6.2 mi NW 17.3 mph - N/A   Scattered Clouds
5:00 PM 60.8 °F 44.6 °F 55% 29.89 in 6.2 mi WNW 15.0 mph - N/A   Scattered Clouds
6:00 PM 59.0 °F 44.6 °F 59% 29.92 in 6.2 mi NW 11.5 mph - N/A   Scattered Clouds
7:00 PM 59.0 °F 44.6 °F 59% 29.92 in 6.2 mi NW 12.7 mph - N/A   Scattered Clouds
8:00 PM 58 °F 43 °F 46% 29.93 in 6 mi NW 12.7 mph - -   Partly Cloudy
8:00 PM 59.0 °F 42.8 °F 55% 29.92 in 6.2 mi NW 12.7 mph - N/A   Scattered Clouds
9:00 PM 59.0 °F 44.6 °F 59% 29.95 in 6.2 mi WNW 11.5 mph - N/A   Scattered Clouds
10:00 PM 59.0 °F 44.6 °F 59% 29.95 in 6.2 mi WNW 8.1 mph - N/A   Scattered Clouds
11:00 PM 57.2 °F 42.8 °F 59% 29.95 in 6.2 mi West 9.2 mph - N/A   Scattered Clouds